sat.trackr.live / text

‹ back to catalog

ONEWEB-0567

NORAD 55147 · 2023-004H

PAYLOAD ACTIVE UNKNOWN

§ Identity

Operator
Country
UK
Launch date
2023-01-10
Launch site
AFETR
Launch vehicle
Mass (kg)
RCS (m²)

Purposes: comms

External: N2YO · Heavens-Above · Gunter

§ Orbital elements

Epoch: 2026-09-20T03:13:22.472832Z

Period
109.20 min
Inclination
87.9156°
Eccentricity
0.0001572
Mean motion
13.18686404 rev/d
Perigee alt
1,188.6 km
Apogee alt
1,190.9 km
Semi-major
7,567.9 km
B*
-3.7535e-7
RAAN
316.6006°
Arg perigee
97.9238°
Mean anomaly
262.2073°
Rev number
18,221

§ Raw data

ONEWEB-05671 55147U 23004H   26263.13428788  .00000013  00000+0 -37535-6 0  99942 55147  87.9156 316.6006 0001572  97.9238 262.2073 13.18686404182212

JSON: /api/v1/satellites/55147 · /tle

For live sub-satellite position, see the globe view (requires WebGL).

§ Visibility from observer

Set your observer location to see the next 7 days of passes ≥ 10°. The values pass through the URL so the page stays shareable.

No JS? Fill the form by hand. The geolocation button needs JavaScript.